[[{"header":{"parameterUnit":"m.s-1","parameterCategory":1,"la1":30.2991,"la2":30.254,"lo1":-89.0895,"lo2":-89.0444,"dy":0.0017,"dx":0.0017,"nx":28,"ny":28,"refTime":"2025-04-08T09:00:00:Z","depth":0,"parameterNumber":2,"parameterNumberName":"U-component_of_WINDS"},"data":[0,0,0,0,0,0,0,0,0,0,0,0,0,0,0,0,0,0,0,0,0,0,0,0,0,0,0,0,0,0,0,0,0,0,0,0,0,0,0,0,0,0,0,0,0,0,0,0,0,0,0,0,0,0,0,0,0,0,1.2673,1.2673,0,1.2725,1.2726,1.2727,1.269,1.2688,1.2687,1.2685,1.2744,1.2747,1.275,0,0,0,0,0,0,0,0,0,0,0,0,0,1.2542,1.2545,1.2673,1.2673,1.2674,1.2725,1.2726,1.2727,1.269,1.2688,1.2686,1.2684,1.2743,1.2747,1.275,0,0,0,0,0,0,0,0,0,0,0,0,0,1.2598,1.2546,1.2672,1.2662,1.2661,1.2725,1.2726,1.2727,1.2691,1.2688,1.2686,1.2683,1.2742,1.2746,1.2751,1.283,0,0,1.2765,1.2767,0,0,0,0,0,0,0,0,1.2594,1.2602,1.2663,1.2663,1.2662,1.2698,1.2702,1.2762,1.2691,1.268,1.2685,1.2682,1.2731,1.2736,1.2752,1.2832,1.2835,1.2766,1.2768,1.277,1.2772,0,0,0,0,0,0,0,1.2591,1.26,1.2694,1.2664,1.2663,1.2655,1.266,1.2713,1.2719,1.268,1.2678,1.2684,1.2731,1.2748,1.2753,1.2836,1.2765,1.277,1.2772,1.2774,1.2981,1.2984,0,0,0,0,0,0,1.2587,1.2597,1.2692,1.2695,1.2621,1.2659,1.2665,1.2689,1.2718,1.272,1.2687,1.2683,1.2741,1.2748,1.2755,1.2847,1.277,1.2775,1.2777,1.2978,1.2982,1.2984,0,0,0,0,0,0,1.2585,1.2596,1.269,1.2645,1.2657,1.2664,1.2692,1.2692,1.2709,1.2723,1.2724,1.2703,1.2739,1.2749,1.281,1.2849,1.2777,1.2781,1.2975,1.2979,1.2983,1.3034,0,0,0,0,0,0,1.2581,1.2595,1.2625,1.2646,1.2659,1.2744,1.2694,1.2695,1.2716,1.2712,1.2738,1.274,1.2738,1.2804,1.2815,1.2854,1.2785,1.2972,1.2977,1.2982,1.3029,1.3039,1.3048,0,0,0,0,0,1.2577,1.2639,1.2627,1.2638,1.2696,1.2746,1.2754,1.2748,1.272,1.275,1.2758,1.2739,1.2843,1.281,1.2823,1.2864,1.2969,1.2976,1.2981,1.3025,1.3037,1.3048,0,0,0,0,0,0,1.2624,1.2642,1.2628,1.2699,1.2721,1.274,1.2777,1.2762,1.2794,1.2789,1.2782,1.2788,1.2853,1.2865,1.2828,1.294,1.2902,1.2911,1.293,1.2942,1.2952,1.2947,1.2789,0,0,0,0,0,1.2643,1.2681,1.2694,1.2755,1.2767,1.277,1.2792,1.2786,1.2809,1.2818,1.2832,1.2856,1.2893,1.2919,1.2955,1.303,1.3035,1.3065,1.3074,1.3082,1.309,1.3129,1.3141,1.3004,1.3004,1.3004,0,0,1.2682,1.2696,1.2721,1.2765,1.2782,1.2821,1.2779,1.2823,1.2853,1.2826,1.2884,1.2895,1.2921,1.299,1.3021,1.3002,1.3128,1.309,1.3096,1.3099,1.3136,1.3149,1.3161,1.3008,1.3008,1.3007,0,0,1.2773,1.2788,1.2839,1.2856,1.288,1.2881,1.2894,1.2914,1.2919,1.2977,1.2957,1.2993,1.3059,1.3077,1.3096,1.3191,1.3175,1.3203,1.3253,1.3291,1.3302,1.3312,1.3344,1.3356,1.3211,1.3211,1.3211,0,1.2819,1.2877,1.2868,1.2913,1.2933,1.2908,1.296,1.2977,1.3012,1.3027,1.3005,1.3084,1.3101,1.3172,1.3195,1.3211,1.3225,1.32,1.3301,1.3311,1.3319,1.335,1.3363,1.3214,1.3214,1.3213,1.3213,0,1.2932,1.2972,1.3011,1.3043,1.3067,1.3116,1.3114,1.314,1.3131,1.3135,1.3194,1.3212,1.3249,1.3266,1.3259,1.3336,1.3323,1.3302,1.3262,1.3336,1.3364,1.3376,1.3219,1.3218,1.3217,1.3216,0,0,1.3056,1.308,1.3094,1.3107,1.3131,1.3163,1.321,1.3245,1.3266,1.3291,1.333,1.3385,1.3363,1.3384,1.3379,1.3412,1.3484,1.3386,1.3386,1.3402,1.3568,1.3584,1.3598,1.3473,1.3476,1.3478,1.3566,0,1.3147,1.3227,1.3219,1.3295,1.3332,1.3307,1.3348,1.3367,1.3372,1.3404,1.3409,1.3447,1.3417,1.3429,1.3461,1.3469,1.3518,1.3463,1.3509,1.3511,1.3502,1.3613,1.3631,1.3713,1.3577,1.3579,1.358,0,1.3264,1.329,1.3369,1.3385,1.34,1.3437,1.3467,1.3498,1.3519,1.352,1.3541,1.353,1.3577,1.3536,1.3601,1.3563,1.3582,1.3588,1.3591,1.3595,1.355,1.3619,1.3739,1.3751,1.3598,1.3597,1.3596,0,1.3344,1.34,1.3453,1.3466,1.3486,1.3512,1.3522,1.354,1.3561,1.3588,1.3601,1.3634,1.3652,1.3677,1.3674,1.3646,1.3739,1.3699,1.3741,1.3741,1.3762,1.376,1.3886,1.3776,1.3775,1.3775,1.3775,0,1.3446,1.3496,1.3489,1.3523,1.3576,1.3567,1.3621,1.3628,1.3644,1.3678,1.366,1.3693,1.3687,1.372,1.3719,1.3771,1.378,1.3781,1.378,1.3783,1.3782,1.3794,1.3788,1.3778,1.3778,1.3777,1.3777,0,1.3545,1.3543,1.36,1.3614,1.3618,1.3657,1.3669,1.37,1.3702,1.3745,1.3755,1.3759,1.3796,1.3795,1.3839,1.3838,1.3901,1.3895,1.3894,1.3892,1.3933,1.3929,1.407,1.4087,1.3967,1.3968,1.3969,0,1.361,1.3647,1.3663,1.3684,1.3695,1.3729,1.3749,1.3741,1.3763,1.3788,1.3816,1.3851,1.3878,1.3939,1.3946,1.3978,1.3971,1.4018,1.3976,1.3976,1.397,1.3967,1.397,1.4027,1.4028,1.4029,1.403,0,1.3725,1.3721,1.375,1.3778,1.3802,1.3825,1.3845,1.3863,1.3857,1.3883,1.3919,1.394,1.3983,1.4018,1.4048,1.4059,1.4044,1.4043,1.4054,1.4056,1.4054,1.4054,1.3915,1.404,1.4039,1.4038,1.4038,1.4037,1.3808,1.3838,1.3854,1.3886,1.39,1.3919,1.3948,1.3952,1.3982,1.4015,1.4009,1.4049,1.4067,1.4107,1.412,1.4152,1.4135,1.4152,1.4156,1.416,1.4163,1.4049,1.4158,1.4157,1.4157,1.4157,1.4157,0,1.392,1.3928,1.3958,1.3985,1.4011,1.3992,1.4013,1.4035,1.4071,1.4088,1.4115,1.4156,1.4189,1.4198,1.4229,1.4253,1.4246,1.4261,1.4259,1.4262,1.4177,1.4164,1.4266,1.4266,1.4266,1.4266,1.4266,1.4266,1.3981,1.4031,1.4029,1.4085,1.4093,1.4132,1.4145,1.4162,1.4176,1.4222,1.4248,1.4253,1.4267,1.4299,1.4328,1.4329,1.4341,1.4359,1.4358,1.4279,1.4268,1.4257,1.4244,1.4362,1.4362,1.4439,1.444,1.444]},{"header":{"parameterUnit":"m.s-1","parameterCategory":1,"la1":30.2991,"la2":30.254,"lo1":-89.0895,"lo2":-89.0444,"dy":0.0017,"dx":0.0017,"nx":28,"ny":28,"refTime":"2025-04-08T09:00:00:Z","depth":0,"parameterNumber":3,"parameterNumberName":"V-component_of_WINDS"},"data":[0,0,0,0,0,0,0,0,0,0,0,0,0,0,0,0,0,0,0,0,0,0,0,0,0,0,0,0,0,0,0,0,0,0,0,0,0,0,0,0,0,0,0,0,0,0,0,0,0,0,0,0,0,0,0,0,0,0,3.3534,3.3534,0,3.354,3.354,3.3541,3.3523,3.3523,3.3522,3.3522,3.3525,3.3526,3.3527,0,0,0,0,0,0,0,0,0,0,0,0,0,3.35,3.3501,3.3534,3.3534,3.3534,3.354,3.354,3.3541,3.3523,3.3523,3.3522,3.3522,3.3525,3.3526,3.3527,0,0,0,0,0,0,0,0,0,0,0,0,0,3.3512,3.3501,3.3534,3.3526,3.3526,3.354,3.354,3.3541,3.3524,3.3523,3.3522,3.3521,3.3525,3.3526,3.3527,3.3548,0,0,3.3529,3.353,0,0,0,0,0,0,0,0,3.3511,3.3513,3.3527,3.3527,3.3526,3.353,3.353,3.3543,3.3524,3.3524,3.3522,3.3521,3.3527,3.3528,3.3531,3.3548,3.3548,3.353,3.353,3.353,3.3531,0,0,0,0,0,0,0,3.351,3.3513,3.3536,3.3527,3.3527,3.3521,3.3521,3.3532,3.353,3.3524,3.3523,3.3524,3.3527,3.353,3.3531,3.3548,3.353,3.353,3.3531,3.3531,3.3579,3.358,0,0,0,0,0,0,3.3511,3.3512,3.3536,3.3536,3.3517,3.3522,3.3523,3.353,3.353,3.3529,3.3525,3.3523,3.3529,3.353,3.3531,3.3553,3.353,3.3531,3.3532,3.3578,3.3579,3.358,0,0,0,0,0,0,3.3511,3.3513,3.3536,3.3524,3.3526,3.3523,3.3531,3.353,3.3533,3.3531,3.353,3.3529,3.3529,3.353,3.3543,3.3553,3.3532,3.3532,3.3577,3.3579,3.358,3.36,0,0,0,0,0,0,3.351,3.3513,3.3523,3.3524,3.3527,3.355,3.3532,3.3531,3.3535,3.3534,3.3534,3.3533,3.3528,3.3542,3.3544,3.3554,3.3533,3.3577,3.3578,3.3579,3.3598,3.3601,3.3604,0,0,0,0,0,3.3509,3.3529,3.3524,3.3527,3.3539,3.355,3.3552,3.3546,3.3536,3.3545,3.3542,3.3533,3.3552,3.3544,3.3546,3.3556,3.3576,3.3578,3.3579,3.3597,3.3601,3.3604,0,0,0,0,0,0,3.3529,3.3529,3.3523,3.3545,3.3548,3.3548,3.3558,3.3551,3.3556,3.3554,3.3546,3.3546,3.356,3.3559,3.355,3.3575,3.3562,3.3564,3.3575,3.3578,3.3581,3.3581,3.3534,0,0,0,0,0,3.3536,3.3546,3.3545,3.3564,3.3566,3.3562,3.3566,3.3561,3.3564,3.3565,3.3563,3.3565,3.357,3.3574,3.358,3.3598,3.3596,3.3606,3.3609,3.3611,3.3613,3.3619,3.3623,3.3585,3.3585,3.3585,0,0,3.355,3.3551,3.3558,3.3568,3.357,3.3578,3.3563,3.3574,3.3579,3.3566,3.3578,3.3577,3.3578,3.3593,3.3599,3.3593,3.3623,3.3614,3.3616,3.3616,3.3621,3.3625,3.3628,3.3587,3.3586,3.3586,0,0,3.358,3.3584,3.3598,3.36,3.3602,3.3599,3.3602,3.3603,3.3601,3.3613,3.3602,3.3608,3.3619,3.3619,3.3621,3.3647,3.3638,3.3649,3.3665,3.3671,3.3674,3.3676,3.3683,3.3686,3.3651,3.3651,3.3651,0,3.3597,3.3612,3.3606,3.3617,3.362,3.3608,3.3621,3.3622,3.3626,3.3628,3.3621,3.3632,3.3632,3.3645,3.3651,3.3654,3.3655,3.3649,3.3674,3.3676,3.3678,3.3685,3.3688,3.3652,3.3652,3.3652,3.3652,0,3.3631,3.3641,3.3652,3.3656,3.366,3.3672,3.3666,3.3671,3.3664,3.3661,3.3672,3.3671,3.3674,3.3677,3.3672,3.3689,3.3684,3.3676,3.3662,3.3683,3.3689,3.3692,3.3654,3.3653,3.3653,3.3653,0,0,3.3676,3.3674,3.3678,3.3678,3.3679,3.3685,3.3695,3.3699,3.3702,3.3704,3.371,3.3718,3.371,3.3711,3.3705,3.3711,3.3728,3.3701,3.3701,3.3704,3.3743,3.3749,3.3752,3.3722,3.3723,3.3723,3.3742,0,3.3704,3.3722,3.3715,3.3732,3.3739,3.3727,3.3735,3.3734,3.3731,3.3735,3.373,3.3735,3.3725,3.3725,3.373,3.3725,3.3736,3.3724,3.3726,3.3726,3.3725,3.3755,3.3762,3.378,3.3745,3.3745,3.3746,0,3.3739,3.3742,3.376,3.3756,3.3759,3.3767,3.3768,3.3773,3.3771,3.3768,3.3768,3.376,3.3766,3.3754,3.3761,3.3753,3.3753,3.3751,3.3751,3.375,3.3736,3.3753,3.3786,3.3788,3.375,3.3749,3.3749,0,3.3766,3.3775,3.3786,3.3787,3.3784,3.3789,3.3787,3.3785,3.3786,3.3787,3.3787,3.3789,3.3789,3.3789,3.378,3.3772,3.3788,3.3775,3.3783,3.3783,3.3787,3.3786,3.3818,3.3789,3.3789,3.3789,3.3789,0,3.3797,3.3808,3.3798,3.3805,3.3815,3.3807,3.3817,3.3814,3.3811,3.3815,3.3805,3.3808,3.3797,3.3799,3.3792,3.3798,3.3799,3.3795,3.3792,3.3795,3.3795,3.3794,3.3792,3.379,3.379,3.379,3.3789,0,3.383,3.3824,3.3834,3.383,3.3828,3.3836,3.3831,3.3836,3.3831,3.3836,3.3837,3.3828,3.383,3.3821,3.3821,3.3816,3.3824,3.3821,3.3825,3.3823,3.3831,3.383,3.3862,3.3865,3.3836,3.3836,3.3837,0,3.3849,3.3857,3.3852,3.3855,3.3854,3.3858,3.3859,3.385,3.3851,3.3848,3.3852,3.3853,3.3853,3.3855,3.3848,3.3847,3.3842,3.3853,3.3842,3.3843,3.384,3.3839,3.3838,3.3856,3.3856,3.3856,3.3857,0,3.3883,3.3879,3.3882,3.3883,3.3884,3.3884,3.3884,3.3886,3.3875,3.3877,3.3878,3.3878,3.3877,3.3877,3.3874,3.3871,3.3861,3.386,3.3862,3.3864,3.3865,3.3862,3.383,3.3859,3.3859,3.3859,3.3859,3.3859,3.3908,3.3913,3.391,3.3913,3.3911,3.391,3.3913,3.3908,3.3909,3.3908,3.3902,3.3904,3.3899,3.3894,3.3891,3.3891,3.3886,3.3888,3.3889,3.3889,3.389,3.3866,3.3891,3.3891,3.3891,3.3891,3.3891,0,3.3939,3.3936,3.3939,3.3938,3.3939,3.393,3.3928,3.3929,3.3931,3.3928,3.3928,3.3927,3.3927,3.3919,3.3916,3.3918,3.3913,3.3917,3.3916,3.3915,3.3896,3.3894,3.3921,3.3921,3.3921,3.3921,3.3921,3.3921,3.3956,3.3963,3.3959,3.3964,3.396,3.3962,3.3962,3.3959,3.3956,3.3957,3.3956,3.3951,3.3945,3.3942,3.394,3.3937,3.3936,3.3942,3.3937,3.392,3.3917,3.3914,3.3912,3.3942,3.3942,3.3956,3.3956,3.3956]}]]